• In Russia
  • List of Countries
  • For 7 days
  • Water Temperature
  • Satellite Maps
  • Weather Map
  • Weather Widgets
  • user-avatar
    Login

    Hourly Weather Roseau

    Today, 18 February, Monday

    Time Temperature Precipitation Wind Pressure Humidity
    00:00 +27°C° 0.1 mm 6 mps 763 mmHg 70%
    01:00 +27°C° 0.1 mm 6 mps 763 mmHg 71%
    02:00 +27°C° 0.1 mm 6 mps 763 mmHg 71%
    03:00 +27°C° 0.1 mm 6 mps 763 mmHg 71%
    04:00 +27°C° 0.1 mm 6 mps 763 mmHg 71%
    05:00 +27°C° 0.1 mm 6 mps 762 mmHg 71%
    06:00 +27°C° 0.3 mm 7 mps 763 mmHg 71%
    07:00 +27°C° 0.3 mm 7 mps 763 mmHg 71%
    08:00 +28°C° 0.3 mm 7 mps 763 mmHg 71%
    09:00 +28°C° 0.3 mm 8 mps 764 mmHg 69%
    10:00 +28°C° 0.3 mm 8 mps 764 mmHg 68%
    11:00 +29°C° 0.3 mm 8 mps 764 mmHg 66%
    12:00 +29°C° 0.2 mm 8 mps 764 mmHg 65%
    13:00 +29°C° 0.2 mm 8 mps 764 mmHg 64%
    14:00 +29°C° 0.2 mm 8 mps 763 mmHg 63%
    15:00 +29°C° 0 mm 8 mps 763 mmHg 64%
    16:00 +29°C° 0 mm 8 mps 763 mmHg 65%
    17:00 +28°C° 0 mm 8 mps 763 mmHg 66%
    18:00 +28°C° 0 mm 8 mps 763 mmHg 68%
    19:00 +28°C° 0 mm 8 mps 763 mmHg 69%
    20:00 +27°C° 0 mm 8 mps 764 mmHg 71%
    21:00 +27°C° 0 mm 8 mps 764 mmHg 71%
    22:00 +27°C° 0 mm 8 mps 764 mmHg 71%
    23:00 +27°C° 0 mm 8 mps 764 mmHg 71%

    Tomorrow, 19 February, Tuesday

    Time Temperature Precipitation Wind Pressure Humidity
    00:00 +27°C° 0 mm 8 mps 763 mmHg 71%
    01:00 +27°C° 0 mm 8 mps 763 mmHg 70%
    02:00 +27°C° 0 mm 8 mps 763 mmHg 69%
    03:00 +27°C° 0 mm 8 mps 762 mmHg 69%
    04:00 +27°C° 0 mm 8 mps 762 mmHg 69%
    05:00 +27°C° 0 mm 7 mps 762 mmHg 68%
    06:00 +27°C° 0.1 mm 8 mps 763 mmHg 69%
    07:00 +28°C° 0.1 mm 8 mps 763 mmHg 69%
    08:00 +28°C° 0.1 mm 8 mps 764 mmHg 70%
    09:00 +28°C° 0.1 mm 8 mps 764 mmHg 66%
    10:00 +29°C° 0.1 mm 8 mps 764 mmHg 62%
    11:00 +31°C° 0.1 mm 8 mps 764 mmHg 58%
    12:00 +31°C° 0 mm 8 mps 764 mmHg 59%
    13:00 +30°C° 0 mm 7 mps 763 mmHg 60%
    14:00 +30°C° 0 mm 7 mps 762 mmHg 61%
    15:00 +29°C° 0 mm 7 mps 762 mmHg 63%
    16:00 +29°C° 0 mm 7 mps 761 mmHg 66%
    17:00 +29°C° 0 mm 7 mps 761 mmHg 68%
    18:00 +28°C° 0.1 mm 8 mps 762 mmHg 69%
    19:00 +28°C° 0.1 mm 8 mps 762 mmHg 71%
    20:00 +28°C° 0.1 mm 8 mps 762 mmHg 73%
    21:00 +28°C° 0.1 mm 9 mps 763 mmHg 72%
    22:00 +28°C° 0.1 mm 9 mps 763 mmHg 72%
    23:00 +28°C° 0.1 mm 9 mps 763 mmHg 71%

    Day after tomorrow, 20 February, Wednesday

    Time Temperature Precipitation Wind Pressure Humidity
    00:00 +27°C° 0 mm 8 mps 762 mmHg 72%
    01:00 +27°C° 0 mm 8 mps 762 mmHg 73%
    02:00 +27°C° 0 mm 8 mps 761 mmHg 74%
    03:00 +27°C° 0 mm 8 mps 761 mmHg 74%
    04:00 +27°C° 0 mm 7 mps 761 mmHg 75%
    05:00 +27°C° 0 mm 7 mps 761 mmHg 75%
    06:00 +27°C° 0.2 mm 8 mps 762 mmHg 75%
    07:00 +27°C° 0.2 mm 8 mps 762 mmHg 74%
    08:00 +28°C° 0.2 mm 9 mps 762 mmHg 73%
    09:00 +28°C° 0.3 mm 9 mps 763 mmHg 72%
    10:00 +29°C° 0.3 mm 9 mps 763 mmHg 70%
    11:00 +29°C° 0.3 mm 10 mps 763 mmHg 68%
    12:00 +29°C° 0.2 mm 9 mps 762 mmHg 69%
    13:00 +29°C° 0.2 mm 9 mps 762 mmHg 69%
    14:00 +28°C° 0.2 mm 9 mps 761 mmHg 70%
    15:00 +28°C° 0.1 mm 9 mps 761 mmHg 69%
    16:00 +28°C° 0.1 mm 9 mps 761 mmHg 68%
    17:00 +28°C° 0.1 mm 9 mps 761 mmHg 67%
    18:00 +28°C° 0 mm 9 mps 761 mmHg 69%
    19:00 +28°C° 0 mm 9 mps 761 mmHg 70%
    20:00 +27°C° 0 mm 9 mps 762 mmHg 72%
    21:00 +27°C° 0 mm 9 mps 762 mmHg 73%
    22:00 +27°C° 0 mm 9 mps 762 mmHg 73%
    23:00 +27°C° 0 mm 9 mps 762 mmHg 74%

    21 February, Thursday

    Time Temperature Precipitation Wind Pressure Humidity
    00:00 +27°C° 0.1 mm 9 mps 762 mmHg 74%
    01:00 +27°C° 0.1 mm 9 mps 762 mmHg 74%
    02:00 +27°C° 0.1 mm 9 mps 761 mmHg 74%
    03:00 +27°C° 0.1 mm 9 mps 761 mmHg 73%
    04:00 +27°C° 0.1 mm 9 mps 761 mmHg 72%
    05:00 +27°C° 0.1 mm 9 mps 761 mmHg 71%
    06:00 +27°C° 0.1 mm 9 mps 762 mmHg 70%
    07:00 +28°C° 0.1 mm 9 mps 763 mmHg 70%
    08:00 +28°C° 0.1 mm 9 mps 763 mmHg 70%
    09:00 +28°C° 0.1 mm 9 mps 764 mmHg 68%
    10:00 +28°C° 0.1 mm 9 mps 764 mmHg 66%
    11:00 +29°C° 0.1 mm 9 mps 764 mmHg 64%
    12:00 +29°C° 0 mm 9 mps 763 mmHg 63%
    13:00 +29°C° 0 mm 8 mps 763 mmHg 61%
    14:00 +31°C° 0 mm 8 mps 762 mmHg 60%
    15:00 +29°C° 0 mm 8 mps 762 mmHg 63%
    16:00 +29°C° 0 mm 9 mps 762 mmHg 67%
    17:00 +28°C° 0 mm 9 mps 761 mmHg 70%
    18:00 +28°C° 0 mm 9 mps 762 mmHg 70%
    19:00 +28°C° 0 mm 9 mps 762 mmHg 70%
    20:00 +28°C° 0 mm 9 mps 762 mmHg 71%
    21:00 +28°C° 0 mm 9 mps 762 mmHg 72%
    22:00 +27°C° 0 mm 9 mps 762 mmHg 73%
    23:00 +27°C° 0 mm 9 mps 762 mmHg 74%

    22 February, Friday

    Time Temperature Precipitation Wind Pressure Humidity
    00:00 +27°C° 0.1 mm 9 mps 762 mmHg 74%
    01:00 +27°C° 0.1 mm 9 mps 762 mmHg 74%
    02:00 +27°C° 0.1 mm 9 mps 762 mmHg 74%
    03:00 +27°C° 0.1 mm 9 mps 762 mmHg 73%
    04:00 +27°C° 0.1 mm 9 mps 762 mmHg 71%
    05:00 +27°C° 0.1 mm 9 mps 762 mmHg 70%
    06:00 +27°C° 0 mm 9 mps 762 mmHg 69%
    07:00 +28°C° 0 mm 9 mps 763 mmHg 68%
    08:00 +28°C° 0 mm 9 mps 764 mmHg 67%
    09:00 +28°C° 0 mm 9 mps 764 mmHg 66%
    10:00 +29°C° 0 mm 9 mps 764 mmHg 65%
    11:00 +29°C° 0 mm 9 mps 764 mmHg 63%
    12:00 +31°C° 0 mm 8 mps 764 mmHg 62%
    13:00 +31°C° 0 mm 8 mps 763 mmHg 61%
    14:00 +31°C° 0 mm 8 mps 762 mmHg 60%
    15:00 +29°C° 0 mm 8 mps 762 mmHg 62%
    16:00 +29°C° 0 mm 8 mps 762 mmHg 63%
    17:00 +29°C° 0 mm 8 mps 762 mmHg 65%
    18:00 +28°C° 0 mm 8 mps 762 mmHg 68%
    19:00 +28°C° 0 mm 8 mps 763 mmHg 70%
    20:00 +28°C° 0 mm 8 mps 763 mmHg 73%
    21:00 +28°C° 0 mm 8 mps 763 mmHg 73%
    22:00 +28°C° 0 mm 8 mps 763 mmHg 74%
    23:00 +28°C° 0 mm 9 mps 763 mmHg 75%

    23 February, Saturday

    Time Temperature Precipitation Wind Pressure Humidity
    00:00 +28°C° 0.1 mm 8 mps 763 mmHg 76%
    01:00 +28°C° 0.1 mm 8 mps 763 mmHg 76%
    02:00 +28°C° 0.1 mm 8 mps 762 mmHg 77%
    03:00 +28°C° 0.2 mm 8 mps 762 mmHg 77%
    04:00 +27°C° 0.2 mm 9 mps 762 mmHg 78%
    05:00 +27°C° 0.2 mm 9 mps 762 mmHg 78%
    06:00 +28°C° 0.2 mm 9 mps 763 mmHg 77%
    07:00 +28°C° 0.2 mm 9 mps 763 mmHg 76%
    08:00 +28°C° 0.2 mm 9 mps 764 mmHg 75%
    09:00 +28°C° 0.1 mm 9 mps 764 mmHg 72%
    10:00 +29°C° 0.1 mm 9 mps 764 mmHg 70%
    11:00 +29°C° 0.1 mm 9 mps 764 mmHg 67%
    12:00 +29°C° 0 mm 9 mps 764 mmHg 67%
    13:00 +29°C° 0 mm 9 mps 763 mmHg 66%
    14:00 +29°C° 0 mm 9 mps 762 mmHg 66%
    15:00 +29°C° 0 mm 9 mps 762 mmHg 67%
    16:00 +29°C° 0 mm 9 mps 762 mmHg 68%
    17:00 +28°C° 0 mm 8 mps 762 mmHg 70%
    18:00 +28°C° 0 mm 9 mps 762 mmHg 71%
    19:00 +27°C° 0 mm 9 mps 762 mmHg 72%
    20:00 +27°C° 0 mm 9 mps 762 mmHg 74%
    21:00 +27°C° 0 mm 9 mps 762 mmHg 73%
    22:00 +27°C° 0 mm 9 mps 762 mmHg 73%
    23:00 +27°C° 0 mm 9 mps 763 mmHg 73%
    Show more